[[{"header":{"parameterUnit":"m.s-1","parameterCategory":1,"la1":30.2991,"la2":30.254,"lo1":-89.0895,"lo2":-89.0444,"dy":0.0017,"dx":0.0017,"nx":28,"ny":28,"refTime":"2025-09-18T03:00:00:Z","depth":0,"parameterNumber":2,"parameterNumberName":"U-component_of_WINDS"},"data":[0,0,0,0,0,0,0,0,0,0,0,0,0,0,0,0,0,0,0,0,0,0,0,0,0,0,0,0,0,0,0,0,0,0,0,0,0,0,0,0,0,0,0,0,0,0,0,0,0,0,0,0,0,0,0,0,0,0,3.3901,3.3901,0,3.3947,3.3947,3.3948,3.3911,3.3909,3.3908,3.3906,3.395,3.3953,3.3955,0,0,0,0,0,0,0,0,0,0,0,0,0,3.3777,3.378,3.3901,3.3901,3.3902,3.3947,3.3947,3.3948,3.3911,3.3909,3.3907,3.3906,3.3949,3.3953,3.3956,0,0,0,0,0,0,0,0,0,0,0,0,0,3.3828,3.3781,3.3901,3.3889,3.3888,3.3946,3.3947,3.3948,3.3912,3.3909,3.3907,3.3905,3.3948,3.3952,3.3956,3.4027,0,0,3.3968,3.397,0,0,0,0,0,0,0,0,3.3825,3.3832,3.389,3.389,3.3889,3.3921,3.392,3.3974,3.3912,3.3903,3.3906,3.3904,3.3942,3.3946,3.396,3.4029,3.4031,3.3968,3.3971,3.3973,3.3974,0,0,0,0,0,0,0,3.3822,3.383,3.3919,3.3891,3.3891,3.388,3.3885,3.393,3.3935,3.3903,3.3901,3.3907,3.3941,3.3956,3.3961,3.4032,3.3968,3.3972,3.3974,3.3976,3.4159,3.4161,0,0,0,0,0,0,3.382,3.3827,3.3917,3.392,3.3851,3.3884,3.389,3.3913,3.3934,3.3935,3.3909,3.3905,3.3951,3.3956,3.3962,3.4044,3.3972,3.3976,3.3978,3.4156,3.4159,3.4162,0,0,0,0,0,0,3.3817,3.3828,3.3915,3.3873,3.3884,3.3889,3.3916,3.3915,3.393,3.3939,3.3939,3.3923,3.3949,3.3957,3.4011,3.4045,3.3978,3.3982,3.4153,3.4157,3.416,3.4211,0,0,0,0,0,0,3.3814,3.3827,3.3855,3.3874,3.3886,3.3964,3.3918,3.3918,3.3937,3.3933,3.3952,3.3953,3.3948,3.4005,3.4015,3.405,3.3985,3.415,3.4155,3.4159,3.4206,3.4216,3.4224,0,0,0,0,0,3.3809,3.3867,3.3857,3.3868,3.3921,3.3967,3.3973,3.3967,3.394,3.3967,3.3973,3.3953,3.4041,3.4011,3.4022,3.4058,3.4148,3.4153,3.4159,3.4202,3.4214,3.4224,0,0,0,0,0,0,3.3851,3.3869,3.3858,3.3924,3.3944,3.396,3.3994,3.398,3.4007,3.4002,3.3992,3.3997,3.4053,3.4061,3.4028,3.4127,3.409,3.4098,3.4119,3.413,3.4139,3.4135,3.3988,0,0,0,0,0,3.3868,3.3905,3.3919,3.3975,3.3986,3.3989,3.4008,3.4002,3.4022,3.403,3.4039,3.4058,3.409,3.4111,3.4141,3.4208,3.421,3.4238,3.4247,3.4255,3.4261,3.4294,3.4306,3.418,3.418,3.418,0,0,3.3903,3.3918,3.3941,3.3984,3.3999,3.4035,3.3996,3.4037,3.4063,3.4036,3.4087,3.4095,3.4115,3.4175,3.4202,3.4184,3.4297,3.4262,3.4268,3.427,3.4301,3.4313,3.4324,3.4184,3.4183,3.4183,0,0,3.3985,3.4001,3.4049,3.4065,3.4088,3.409,3.4101,3.412,3.4124,3.4176,3.4155,3.4186,3.4242,3.4257,3.4272,3.436,3.4341,3.437,3.4416,3.4449,3.4459,3.4468,3.4496,3.4507,3.4377,3.4377,3.4377,0,3.4025,3.4081,3.4075,3.4117,3.4136,3.4114,3.4161,3.4177,3.4208,3.4221,3.42,3.4269,3.4281,3.4344,3.4365,3.4379,3.439,3.4366,3.4459,3.4467,3.4475,3.4502,3.4513,3.438,3.438,3.4379,3.4379,0,3.4128,3.4166,3.4202,3.4234,3.4257,3.4301,3.4301,3.4325,3.4317,3.432,3.4371,3.4386,3.4418,3.4433,3.4425,3.4493,3.4481,3.446,3.4422,3.449,3.4515,3.4526,3.4384,3.4383,3.4382,3.4382,0,0,3.4235,3.4264,3.4277,3.429,3.4314,3.4343,3.4387,3.4418,3.4437,3.446,3.4494,3.4542,3.4523,3.454,3.4534,3.4563,3.4628,3.4538,3.4538,3.4552,3.4702,3.4715,3.4728,3.4618,3.462,3.4621,3.4699,0,3.4316,3.4392,3.4388,3.4458,3.4493,3.4473,3.451,3.4528,3.4532,3.4561,3.4566,3.4598,3.4572,3.4581,3.461,3.4614,3.4658,3.4609,3.4647,3.4648,3.4639,3.4741,3.4756,3.4829,3.4709,3.4711,3.4712,0,3.442,3.4447,3.4521,3.4539,3.4553,3.4587,3.4614,3.4643,3.4663,3.4664,3.4683,3.4672,3.4714,3.4677,3.4733,3.47,3.4716,3.472,3.4723,3.4724,3.4682,3.4742,3.4852,3.4862,3.4728,3.4727,3.4726,0,3.4488,3.4542,3.4593,3.4605,3.4629,3.4652,3.4663,3.468,3.4699,3.4724,3.4736,3.4765,3.478,3.4802,3.4798,3.4773,3.4855,3.4818,3.4854,3.4854,3.487,3.4869,3.4981,3.4885,3.4885,3.4885,3.4885,0,3.4576,3.4622,3.4623,3.4654,3.4704,3.4699,3.4748,3.4756,3.4771,3.4802,3.4788,3.4816,3.4812,3.484,3.4838,3.4883,3.4891,3.4891,3.4889,3.4891,3.489,3.4898,3.4892,3.4888,3.4887,3.4887,3.4886,0,3.4659,3.4662,3.4716,3.4734,3.4739,3.4775,3.4789,3.4817,3.4821,3.486,3.4869,3.4874,3.4907,3.4906,3.4944,3.4942,3.4997,3.4991,3.499,3.4988,3.5023,3.5018,3.5142,3.5156,3.5054,3.5055,3.5056,0,3.4714,3.4748,3.477,3.479,3.4802,3.4835,3.4854,3.4851,3.4872,3.4896,3.4921,3.4953,3.4978,3.5031,3.5037,3.5065,3.5058,3.5099,3.5061,3.5061,3.5054,3.5051,3.5053,3.5105,3.5106,3.5107,3.5108,0,3.481,3.481,3.4839,3.4869,3.4893,3.4916,3.4937,3.4954,3.4953,3.4977,3.501,3.503,3.5068,3.5099,3.5126,3.5135,3.5121,3.5121,3.513,3.513,3.5127,3.5126,3.5007,3.5117,3.5116,3.5115,3.5115,3.5115,3.4879,3.4907,3.4927,3.496,3.4975,3.4996,3.5023,3.503,3.5058,3.5089,3.5086,3.5123,3.5141,3.5176,3.5187,3.5215,3.52,3.5214,3.5217,3.522,3.5223,3.5125,3.522,3.522,3.522,3.522,3.522,0,3.4972,3.4983,3.5014,3.5044,3.5069,3.5056,3.5078,3.51,3.5133,3.5151,3.5176,3.5214,3.5244,3.5253,3.5281,3.5301,3.5295,3.5309,3.5305,3.5307,3.5236,3.5224,3.5313,3.5313,3.5313,3.5313,3.5313,3.5313,3.5023,3.507,3.5072,3.5127,3.5138,3.5175,3.5189,3.5206,3.5221,3.5264,3.5289,3.5295,3.5309,3.5338,3.5364,3.5366,3.5376,3.5391,3.539,3.5322,3.5313,3.5304,3.5292,3.5394,3.5394,3.5458,3.5459,3.5459]},{"header":{"parameterUnit":"m.s-1","parameterCategory":1,"la1":30.2991,"la2":30.254,"lo1":-89.0895,"lo2":-89.0444,"dy":0.0017,"dx":0.0017,"nx":28,"ny":28,"refTime":"2025-09-18T03:00:00:Z","depth":0,"parameterNumber":3,"parameterNumberName":"V-component_of_WINDS"},"data":[0,0,0,0,0,0,0,0,0,0,0,0,0,0,0,0,0,0,0,0,0,0,0,0,0,0,0,0,0,0,0,0,0,0,0,0,0,0,0,0,0,0,0,0,0,0,0,0,0,0,0,0,0,0,0,0,0,0,2.3907,2.391,0,2.4149,2.4152,2.4154,2.4202,2.4201,2.4199,2.4197,2.4437,2.4445,2.4453,0,0,0,0,0,0,0,0,0,0,0,0,0,2.3478,2.3485,2.3907,2.391,2.3913,2.4148,2.4152,2.4155,2.4203,2.4201,2.4198,2.4196,2.4435,2.4444,2.4454,0,0,0,0,0,0,0,0,0,0,0,0,0,2.3686,2.3488,2.3906,2.3965,2.3973,2.4148,2.4152,2.4156,2.4203,2.42,2.4198,2.4195,2.4431,2.4443,2.4455,2.4586,0,0,2.4492,2.4498,0,0,0,0,0,0,0,0,2.3674,2.3702,2.3954,2.3962,2.397,2.4143,2.4088,2.43,2.4204,2.4116,2.4197,2.4194,2.4341,2.436,2.4412,2.4597,2.4607,2.4493,2.4501,2.4506,2.451,0,0,0,0,0,0,0,2.366,2.3691,2.4002,2.3957,2.3967,2.3977,2.4003,2.4129,2.4241,2.4123,2.4127,2.4156,2.4345,2.44,2.4418,2.4611,2.4493,2.4504,2.4511,2.4516,2.4913,2.4917,0,0,0,0,0,0,2.3636,2.3679,2.3995,2.401,2.3813,2.3987,2.4016,2.409,2.4239,2.426,2.4158,2.4157,2.438,2.4403,2.4426,2.4589,2.4506,2.4517,2.4524,2.491,2.4914,2.4918,0,0,0,0,0,0,2.3626,2.3664,2.3985,2.3846,2.3887,2.3997,2.4079,2.4096,2.4151,2.4266,2.4285,2.4194,2.4379,2.4409,2.4546,2.4598,2.4523,2.4534,2.4906,2.4911,2.4916,2.4915,0,0,0,0,0,0,2.3614,2.366,2.3713,2.3847,2.3895,2.4103,2.4083,2.4103,2.4173,2.4174,2.4305,2.4324,2.4379,2.4528,2.4558,2.4613,2.4543,2.4902,2.4909,2.4914,2.4911,2.4919,2.4927,0,0,0,0,0,2.3598,2.3702,2.3715,2.3753,2.3964,2.4106,2.4134,2.4198,2.4177,2.423,2.4303,2.4319,2.4587,2.4541,2.4576,2.4636,2.4899,2.4907,2.4914,2.4908,2.4918,2.4926,0,0,0,0,0,0,2.3569,2.372,2.3737,2.3888,2.3984,2.4114,2.4183,2.4207,2.4309,2.4306,2.4378,2.4407,2.454,2.4601,2.4547,2.4769,2.4741,2.4756,2.4725,2.4735,2.4743,2.4726,2.4554,0,0,0,0,0,2.3581,2.3687,2.3812,2.3932,2.398,2.4073,2.4137,2.4178,2.428,2.4321,2.4404,2.45,2.4605,2.4673,2.4777,2.4919,2.4947,2.4977,2.4984,2.499,2.5002,2.5081,2.5095,2.4942,2.4942,2.4942,0,0,2.3605,2.37,2.3763,2.3929,2.4008,2.4114,2.4107,2.4219,2.4297,2.4337,2.4473,2.4536,2.4647,2.4787,2.4853,2.4843,2.5051,2.5,2.5003,2.5013,2.509,2.5104,2.5117,2.4947,2.4946,2.4945,0,0,2.3703,2.3787,2.3896,2.3976,2.4097,2.4158,2.4184,2.4311,2.4355,2.4493,2.4524,2.4616,2.4797,2.4875,2.4938,2.5063,2.5081,2.5094,2.5135,2.5211,2.5223,2.5234,2.5278,2.5293,2.5105,2.5105,2.5105,0,2.3718,2.3881,2.3948,2.406,2.4131,2.4173,2.4283,2.4356,2.4503,2.455,2.4536,2.4763,2.4841,2.4999,2.503,2.5079,2.511,2.5081,2.5216,2.5228,2.5239,2.5282,2.5299,2.5106,2.5106,2.5106,2.5106,0,2.3892,2.4005,2.4078,2.4222,2.4301,2.441,2.4492,2.4563,2.4595,2.4657,2.4794,2.4889,2.5012,2.5052,2.5084,2.5214,2.5204,2.5202,2.5176,2.5254,2.5295,2.5312,2.5107,2.5107,2.5107,2.5107,0,0,2.3982,2.4161,2.4187,2.4253,2.4388,2.4475,2.4584,2.4707,2.4766,2.4864,2.4958,2.5108,2.5107,2.5179,2.5219,2.5286,2.5378,2.5276,2.5279,2.5292,2.5526,2.5528,2.5546,2.539,2.5393,2.5396,2.5517,0,2.4098,2.43,2.4362,2.4529,2.4633,2.4672,2.4767,2.4859,2.4918,2.5012,2.5075,2.5182,2.5172,2.5216,2.5283,2.5353,2.5426,2.5345,2.5476,2.5479,2.5449,2.5568,2.5571,2.5681,2.5534,2.5536,2.5539,0,2.4261,2.4365,2.4543,2.4665,2.471,2.4795,2.4912,2.5002,2.5104,2.5142,2.5221,2.5257,2.5369,2.5336,2.5491,2.5434,2.549,2.5532,2.5538,2.5554,2.5515,2.5588,2.5717,2.5734,2.5565,2.5563,2.5561,0,2.4309,2.4493,2.4624,2.4678,2.4823,2.4882,2.4944,2.5044,2.5113,2.5213,2.5258,2.5369,2.543,2.5513,2.5576,2.5545,2.5725,2.5697,2.5759,2.5757,2.5797,2.5794,2.5937,2.583,2.583,2.583,2.5829,0,2.4433,2.454,2.4648,2.4728,2.4849,2.4917,2.5033,2.5097,2.5186,2.5277,2.5316,2.5399,2.5477,2.557,2.5619,2.574,2.5766,2.5799,2.5811,2.5797,2.5792,2.5836,2.583,2.5834,2.5833,2.5832,2.5832,0,2.4509,2.4585,2.473,2.4855,2.4888,2.4972,2.5077,2.5154,2.5214,2.5328,2.5359,2.5452,2.5563,2.5634,2.5775,2.5807,2.594,2.5949,2.5906,2.5912,2.597,2.5964,2.6148,2.6176,2.6049,2.605,2.6051,0,2.4584,2.4668,2.4801,2.4867,2.493,2.5034,2.5105,2.5174,2.5245,2.5368,2.543,2.5545,2.564,2.5816,2.5894,2.6001,2.6013,2.607,2.603,2.6012,2.6015,2.601,2.6018,2.6077,2.6079,2.6079,2.608,0,2.4708,2.4742,2.4844,2.496,2.5044,2.5137,2.523,2.5279,2.5364,2.5441,2.5557,2.5631,2.5776,2.5888,2.6002,2.6062,2.6085,2.6092,2.6112,2.6099,2.6071,2.6088,2.5926,2.6088,2.6087,2.6087,2.6086,2.6086,2.4787,2.4863,2.497,2.5081,2.5159,2.5244,2.5323,2.5393,2.5492,2.5617,2.565,2.577,2.5868,2.6024,2.6086,2.6179,2.6172,2.6201,2.6208,2.6215,2.6216,2.6055,2.62,2.62,2.62,2.62,2.62,0,2.4915,2.4985,2.5087,2.5217,2.5304,2.5319,2.5421,2.5492,2.5599,2.569,2.5783,2.5915,2.6023,2.6109,2.622,2.6277,2.629,2.6304,2.6301,2.6315,2.6217,2.6189,2.6292,2.6292,2.6292,2.6292,2.6292,2.6292,2.4992,2.5121,2.5167,2.5333,2.5402,2.5523,2.558,2.5658,2.573,2.5877,2.5968,2.6024,2.6111,2.6229,2.6328,2.635,2.6389,2.6401,2.6425,2.6332,2.6322,2.6312,2.6286,2.6409,2.6409,2.6516,2.6516,2.6517]}]]